SIC0904 LOWI-LSZS

Flight info

Callsign SIC0904
Flight time 0h 22m
Altitude 16000
Route MOGT3H MOGTI DCT TIRUL Z408 RONAG DCT
Aircraft PC12/L-SBDFGJ1RWY/LB1

Departure

Time 2026-04-23 15:25
Airport Innsbruck Airport (LOWI)

Arrival

Time 2026-04-23 15:48
Airport Engadin Airport (LSZS)
Time Latitude Longitude Altitude Speed Heading
2026-04-23 15:16 47.25933 11.35393 1903 ft 0 kts 169°
2026-04-23 15:23 47.25913 11.35365 1896 ft 9 kts 269°
2026-04-23 15:23 47.25953 11.35284 1903 ft 12 kts 346°
2026-04-23 15:24 47.26035 11.35266 1900 ft 12 kts 352°
2026-04-23 15:24 47.26108 11.35235 1901 ft 8 kts 289°
2026-04-23 15:24 47.26106 11.35185 1903 ft 7 kts 262°
2026-04-23 15:24 47.26069 11.34824 1904 ft 65 kts 262°
2026-04-23 15:25 47.25970 11.33925 1964 ft 104 kts 263°
2026-04-23 15:25 47.25863 11.32802 2246 ft 116 kts 268°
2026-04-23 15:25 47.25808 11.31974 2451 ft 128 kts 267°
2026-04-23 15:25 47.25594 11.30039 2761 ft 160 kts 263°
2026-04-23 15:26 47.25407 11.28296 2997 ft 184 kts 263°
2026-04-23 15:26 47.25426 11.26391 3368 ft 191 kts 284°
2026-04-23 15:26 47.25911 11.24550 3741 ft 196 kts 294°
2026-04-23 15:26 47.26462 11.22679 4142 ft 201 kts 295°
2026-04-23 15:27 47.27023 11.20766 4526 ft 207 kts 294°
2026-04-23 15:27 47.27603 11.18786 4907 ft 213 kts 295°
2026-04-23 15:27 47.28179 11.16812 5344 ft 212 kts 294°
2026-04-23 15:27 47.28762 11.14811 5847 ft 208 kts 295°
2026-04-23 15:28 47.29320 11.12890 6318 ft 206 kts 295°
2026-04-23 15:28 47.29887 11.10943 6713 ft 208 kts 295°
2026-04-23 15:28 47.30414 11.08954 7061 ft 210 kts 286°
2026-04-23 15:28 47.30503 11.06794 7418 ft 214 kts 270°
2026-04-23 15:29 47.30416 11.04593 7746 ft 215 kts 270°
2026-04-23 15:29 47.30333 11.02385 8073 ft 219 kts 270°
2026-04-23 15:29 47.30277 11.00851 8247 ft 223 kts 271°
2026-04-23 15:29 47.30195 10.98585 8509 ft 226 kts 270°
2026-04-23 15:30 47.30107 10.96254 8758 ft 229 kts 271°
2026-04-23 15:30 47.30019 10.93925 9030 ft 230 kts 269°
2026-04-23 15:30 47.29930 10.91564 9342 ft 232 kts 270°
2026-04-23 15:30 47.29839 10.89184 9655 ft 233 kts 270°
2026-04-23 15:31 47.29764 10.86799 10004 ft 233 kts 274°
2026-04-23 15:31 47.30076 10.84472 10255 ft 231 kts 294°
2026-04-23 15:31 47.30862 10.82450 10543 ft 227 kts 311°
2026-04-23 15:31 47.31999 10.80817 10780 ft 229 kts 321°
2026-04-23 15:32 47.33542 10.78703 11225 ft 227 kts 315°
2026-04-23 15:32 47.34148 10.77398 11412 ft 231 kts 301°
2026-04-23 15:32 47.34650 10.75115 11744 ft 238 kts 282°
2026-04-23 15:32 47.34595 10.72654 12034 ft 245 kts 261°
2026-04-23 15:33 47.33954 10.70341 12262 ft 251 kts 240°
2026-04-23 15:33 47.32760 10.68460 12515 ft 253 kts 217°
2026-04-23 15:33 47.31182 10.67276 12707 ft 258 kts 201°
2026-04-23 15:33 47.29501 10.66324 12985 ft 259 kts 200°
2026-04-23 15:34 47.27817 10.65381 13258 ft 260 kts 201°
2026-04-23 15:34 47.26117 10.64415 13506 ft 262 kts 201°
2026-04-23 15:34 47.24409 10.63441 13672 ft 265 kts 200°
2026-04-23 15:34 47.22685 10.62465 13881 ft 266 kts 201°
2026-04-23 15:35 47.20944 10.61476 14120 ft 269 kts 200°
2026-04-23 15:35 47.19195 10.60481 14423 ft 269 kts 201°
2026-04-23 15:35 47.17446 10.59491 14792 ft 270 kts 200°
2026-04-23 15:35 47.15686 10.58497 14991 ft 272 kts 200°
2026-04-23 15:36 47.13920 10.57501 15197 ft 272 kts 200°
2026-04-23 15:36 47.12150 10.56500 15427 ft 273 kts 200°
2026-04-23 15:36 47.10374 10.55495 15673 ft 274 kts 200°
2026-04-23 15:36 47.08601 10.54495 15885 ft 273 kts 200°
2026-04-23 15:37 47.06820 10.53495 16002 ft 277 kts 200°
2026-04-23 15:37 47.05070 10.52261 15988 ft 282 kts 213°
2026-04-23 15:37 47.03429 10.50650 15989 ft 285 kts 214°
2026-04-23 15:37 47.01781 10.49029 16004 ft 287 kts 214°
2026-04-23 15:38 47.00111 10.47398 16003 ft 289 kts 214°
2026-04-23 15:38 46.98423 10.45757 15972 ft 293 kts 214°
2026-04-23 15:38 46.96725 10.44105 15793 ft 291 kts 214°
2026-04-23 15:38 46.95055 10.42474 15641 ft 287 kts 214°
2026-04-23 15:39 46.93397 10.40862 15491 ft 285 kts 214°
2026-04-23 15:39 46.91772 10.39287 15348 ft 283 kts 214°
2026-04-23 15:39 46.90134 10.37698 15203 ft 282 kts 213°
2026-04-23 15:39 46.88500 10.36113 15053 ft 282 kts 213°
2026-04-23 15:40 46.86870 10.34535 14907 ft 279 kts 213°
2026-04-23 15:40 46.85263 10.32979 14766 ft 277 kts 213°
2026-04-23 15:40 46.83655 10.31423 14632 ft 276 kts 214°
2026-04-23 15:40 46.82070 10.29889 14482 ft 272 kts 213°
2026-04-23 15:41 46.80494 10.28365 14339 ft 271 kts 214°
2026-04-23 15:41 46.78925 10.26851 14191 ft 269 kts 214°
2026-04-23 15:41 46.77380 10.25337 14049 ft 266 kts 218°
2026-04-23 15:41 46.76244 10.23271 13996 ft 259 kts 245°
2026-04-23 15:42 46.75519 10.20898 13823 ft 255 kts 249°
2026-04-23 15:42 46.74691 10.18651 13547 ft 249 kts 240°
2026-04-23 15:42 46.73720 10.16592 13276 ft 244 kts 236°
2026-04-23 15:42 46.72690 10.14656 12939 ft 242 kts 227°
2026-04-23 15:43 46.71473 10.12941 12459 ft 245 kts 224°
2026-04-23 15:43 46.70244 10.11215 11978 ft 247 kts 226°
2026-04-23 15:43 46.69019 10.09464 11495 ft 247 kts 225°
2026-04-23 15:43 46.67799 10.07720 11016 ft 244 kts 226°
2026-04-23 15:44 46.66587 10.05995 10547 ft 243 kts 225°
2026-04-23 15:44 46.65388 10.04294 10162 ft 237 kts 226°
2026-04-23 15:44 46.64223 10.02677 9721 ft 234 kts 225°
2026-04-23 15:44 46.63045 10.01089 9250 ft 224 kts 224°
2026-04-23 15:45 46.61928 9.99579 8788 ft 215 kts 225°
2026-04-23 15:45 46.60842 9.98122 8318 ft 210 kts 225°
2026-04-23 15:45 46.59772 9.96692 7844 ft 207 kts 225°
2026-04-23 15:45 46.58807 9.95181 7516 ft 194 kts 232°
2026-04-23 15:46 46.58057 9.93795 7244 ft 159 kts 236°
2026-04-23 15:46 46.57453 9.92527 6908 ft 147 kts 237°
2026-04-23 15:46 46.56833 9.91417 6538 ft 129 kts 224°
2026-04-23 15:46 46.56188 9.90679 6344 ft 113 kts 213°
2026-04-23 15:47 46.55550 9.90114 6166 ft 106 kts 210°
2026-04-23 15:47 46.54907 9.89606 5936 ft 105 kts 208°
2026-04-23 15:47 46.54298 9.89107 5701 ft 96 kts 207°
2026-04-23 15:47 46.53757 9.88675 5611 ft 79 kts 207°
2026-04-23 15:48 46.53336 9.88325 5613 ft 58 kts 208°
2026-04-23 15:48 46.53074 9.88114 5606 ft 41 kts 208°
2026-04-23 15:48 46.52965 9.88016 5605 ft 7 kts 264°
2026-04-23 15:48 46.52993 9.87968 5604 ft 4 kts 297°
2026-04-23 15:49 46.53019 9.87945 5604 ft 7 kts
2026-04-23 15:49 46.53058 9.87929 5603 ft 1 kts 298°
2026-04-23 15:49 46.53058 9.87928 5603 ft 0 kts 298°